カタログに戻る

STARLINK-30127

運用中通信VLEO
NORAD 56699·PAYLOAD·🇺🇸 United States

打ち上げ May 19, 2023 から Cape Canaveral Space Force Station

Loading…

次のパス (今後24時間)

TLE

最新Source: CelesTrak SupGP

元期: Sep 14, 2026, 21:21 UTC

1 56699C 23067M   26257.89006944 -.00030285  00000+0 -10970-2 0  2570
2 56699  43.0038 292.9593 0002101 269.5085  90.9273 15.27588847    19

AllMySatでSTARLINK-30127をリアルタイム追跡

Download on the App Store